Location: ??????????
(42.1626°N, 44.1160°E)
Time: 13:04:29
(UTC+00:00)

Cosmos 1602 - Pass Details

Date: 03 March 2021
Orbit: 512 x 534 km, 82.5° (Epoch: 13 April)

Event Time Altitude Azimuth Distance (km) Brightness Sun altitude
Rises 15:27:15 0° 179° (S) 2,644 7.3 -6.6°
Reaches altitude 10° 15:29:23 10° 176° (S) 1,764 6.4 -7.0°
Maximum altitude 15:33:13 63° 95° (E) 594 3.7 -7.7°
Drops below altitude 10° 15:37:06 10° 14° (NNE) 1,790 6.3 -8.4°
Sets 15:39:17 0° 12° (NNE) 2,688 7.2 -8.8°
